User: anonymous   Login
Location: 相模原市立博物館
(35.5593°N, 139.3931°E)
Time: 14:20:34
(UTC+09:00)
Language:

SRMSAT - Orbit

View from above orbital plane
View from above orbital plane
View from above satellite
View from above satellite

Ground track
Ground track

The orbit data is extracted from the following two-line orbital elements,

1 37841U 11058D   22024.38790823  .00000307  00000-0  23308-4 0  9998
2 37841  19.9734  45.7147 0011759 200.1840 189.5572 14.10722212530876
Epoch (UTC): 24 January 2022 09:18:35
Eccentricity: 0.0011759
inclination: 19.9734°
perigee height: 848 km
apogee height: 865 km
right ascension of ascending node: 45.7147°
argument of perigee: 200.1840°
revolutions per day: 14.10722212
mean anomaly at epoch: 189.5572°
orbit number at epoch: 53087

The dashed part of the orbit path shows where the satellite is in the earth's shadow,  

DLR